Location: Unspecified
(20.0000°S, 0.0000°E)
Time: 01:59:12
(UTC+00:00)

KKS-1 - Pass Details

Date: 25 August 2019
Orbit: 637 x 650 km, 98.3° (Epoch: 16 October)

Event Time Altitude Azimuth Distance (km) Brightness Sun altitude
Rises 19:05:32 0° 358° (N) 2,949 ? -18.4°
Reaches altitude 10° 19:07:49 10° 351° (N) 2,045 ? -18.9°
Maximum altitude 19:12:02 42° 280° (W) 936 ? -19.9°
Drops below altitude 10° 19:16:18 10° 209° (SSW) 2,063 ? -20.9°
Sets 19:18:37 0° 202° (SSW) 2,978 ? -21.5°
